Weather History for Lone Rock, WI

Change the Weather History Date:

Tuesday, March 11, 2014

  Actual Average Record
Temperature  
Mean Temperature 39 °F -  
Max Temperature 44 °F 36 °F 66 °F (2006)
Min Temperature 34 °F 20 °F 6 °F (1998)
Degree Days  
Heating Degree Days 26    
Moisture  
Dew Point 32 °F    
Average Humidity 79    
Maximum Humidity 93    
Minimum Humidity 57    
Precipitation  
Precipitation 0.08 in - - ()
Sea Level Pressure  
Sea Level Pressure 29.75 in    
Wind  
Wind Speed 5 mph (NNW)    
Max Wind Speed 17 mph    
Max Gust Speed 23 mph    
Visibility 10 miles    
Events Rain    
Averages and records for this station are not official NWS values.
T = Trace of Precipitation, MM = Missing Value Source: NWS Daily Summary

Daily Weather History Graph

Daily Weather History Graph

Search for Another Location

Airport:

Trip Planner

Search our weather history database for the weather conditions in past years. The results will help you decide how hot, cold, wet, or windy it might be!

Date:

Astronomy

Mar. 11, 2014 Rise Set
Actual Time 7:19 AM CDT 7:02 PM CDT
Civil Twilight 6:51 AM CDT 7:30 PM CDT
Nautical Twilight 6:18 AM CDT 8:03 PM CDT
Astronomical Twilight 5:45 AM CDT 8:37 PM CDT
Moon 2:33 PM CDT (3/11) 4:19 AM CDT (3/11)
Length of Visible Light 12h 39m
Length of Day
11h 42m
Waxing Gibbous, 78% of the Moon is Illuminated
Mar 11
Waxing Gibbous
Mar 16
Full
Mar 23
Last Quarter
Mar 30
New
Apr 7
First Quarter

Hourly Weather History & Observations

Time (CDT) Temp. Windchill Dew Point Humidity Pressure Visibility Wind Dir Wind Speed Gust Speed Precip Events Conditions
12:56 AM 35.1 °F - 32.0 °F 89% 29.68 in 10.0 mi Calm Calm - N/A   Partly Cloudy
1:56 AM 34.0 °F - 32.0 °F 92% 29.69 in 10.0 mi Calm Calm - N/A   Partly Cloudy
2:56 AM 34.0 °F - 32.0 °F 92% 29.70 in 10.0 mi Calm Calm - N/A   Overcast
3:56 AM 34.0 °F - 30.9 °F 89% 29.66 in 10.0 mi Calm Calm - N/A   Overcast
4:56 AM 35.1 °F 28.6 °F 32.0 °F 89% 29.68 in 10.0 mi West 8.1 mph - N/A   Overcast
5:56 AM 35.1 °F - 32.0 °F 89% 29.68 in 10.0 mi Calm Calm - N/A   Overcast
6:56 AM 35.1 °F 32.2 °F 32.0 °F 89% 29.67 in 10.0 mi SSW 3.5 mph - N/A   Overcast
7:56 AM 44.1 °F 36.5 °F 30.0 °F 58% 29.65 in 10.0 mi North 17.3 mph 23.0 mph N/A   Overcast
8:56 AM 42.1 °F - 30.9 °F 65% 29.70 in 10.0 mi Calm Calm - N/A   Overcast
9:56 AM 44.1 °F 38.1 °F 30.0 °F 58% 29.72 in 10.0 mi NNE 11.5 mph - N/A   Overcast
10:56 AM 43.0 °F 37.2 °F 32.0 °F 65% 29.75 in 10.0 mi NNE 10.4 mph 20.7 mph N/A   Mostly Cloudy
11:56 AM 42.1 °F 35.7 °F 34.0 °F 73% 29.76 in 10.0 mi NNE 11.5 mph - N/A   Overcast
12:56 PM 42.1 °F 34.9 °F 35.1 °F 76% 29.80 in 10.0 mi North 13.8 mph 17.3 mph N/A   Overcast
1:51 PM 41.0 °F 35.8 °F 35.6 °F 81% 29.79 in 10.0 mi North 8.1 mph - N/A   Overcast
1:56 PM 42.1 °F 36.6 °F 35.1 °F 76% 29.79 in 10.0 mi North 9.2 mph - 0.00 in Rain Light Rain
2:56 PM 39.9 °F 35.1 °F 35.1 °F 83% 29.81 in 9.0 mi NNW 6.9 mph - 0.01 in Rain Light Rain
3:56 PM 39.0 °F 34.0 °F 34.0 °F 82% 29.80 in 10.0 mi North 6.9 mph - 0.04 in Rain Light Rain
4:56 PM 39.0 °F 34.0 °F 34.0 °F 82% 29.79 in 7.0 mi North 6.9 mph - 0.01 in Rain Light Rain
5:35 PM 37.9 °F - 34.0 °F 86% 29.77 in 10.0 mi Calm Calm - 0.01 in Rain Light Rain
5:56 PM 35.1 °F 32.2 °F 33.1 °F 92% 29.78 in 10.0 mi South 3.5 mph - 0.01 in   Overcast
6:56 PM 36.0 °F 29.6 °F 34.0 °F 93% 29.81 in 10.0 mi NW 8.1 mph - 0.01 in   Overcast
7:56 PM 37.9 °F 32.1 °F 34.0 °F 86% 29.83 in 10.0 mi NW 8.1 mph - N/A   Overcast
8:56 PM 37.9 °F 32.7 °F 33.1 °F 83% 29.83 in 10.0 mi WNW 6.9 mph - N/A   Overcast
9:56 PM 37.9 °F 31.5 °F 28.9 °F 70% 29.81 in 10.0 mi NW 9.2 mph - N/A   Overcast
10:56 PM 39.0 °F 31.8 °F 25.0 °F 57% 29.79 in 10.0 mi North 11.5 mph - N/A   Overcast
11:56 PM 37.9 °F 30.5 °F 26.1 °F 62% 29.81 in 10.0 mi North 11.5 mph 20.7 mph N/A   Overcast